Location: Albany
(42.6526°N, 73.7562°W)
Time: 23:45:22
(UTC+00:00)

SeaSat 1 - Pass Details

Date: 19 November 2019
Orbit: 745 x 747 km, 108.0° (Epoch: 09 December)

Event Time Altitude Azimuth Distance (km) Brightness Sun altitude
Rises 22:00:49 0° 117° (ESE) 3,179 5.3 -6.2°
Reaches altitude 10° 22:03:24 10° 105° (ESE) 2,260 4.5 -6.6°
Maximum altitude 22:07:22 25° 51° (NE) 1,465 3.4 -7.3°
Drops below altitude 10° 22:11:22 10° 357° (N) 2,271 4.8 -8.0°
Sets 22:13:58 0° 344° (NNW) 3,199 5.7 -8.4°
